Date String (YYYY-MM-DD hh:mm:ss) UTC,Instrument flags,absolute air pressure of the measurement (hPa),sample flow rate (lpm),inlet stack bypass flow (lpm),air temperature of the measurement (°C),ambient temperature measured by the external sensor (°C),aerosol sample conditioner tube jacket temperature (°C),OPC LED temperature (°C),internal box temperature (°C),relative humidity of the measurement (%),span deviation,mass concentration of particles derived from Lorenz-Mie calculation of OPC scattering (μg/m³),mass concentration of particles derived from Lorenz-Mie calculation of OPC scattering (μg/m³),mass concentration of particles derived from Lorenz-Mie calculation of OPC scattering (μg/m³)
DateTimeUTC,F1_M11,P_M11,Q1_M11,Q2_M11,T1_M11,T2_M11,T3_M11,T4_M11,T5_M11,U1_M11,ZSPAN_M11,X0_M11,X2_M11,X1_M11
2024-05-07 01:00:00,SystemResetWarning,0814.6,4.99,000.00,022.0,021.2,000.0,030.2,023.6,015.2,0000.0,0004.60,0000.77,0000.19
2024-05-07 01:01:00,SystemResetWarning,0814.3,5.00,000.00,022.0,021.2,000.0,030.2,023.6,014.2,0000.0,0004.36,0000.78,0000.19
2024-05-07 01:02:00,SystemResetWarning,0814.4,5.01,000.00,022.0,021.2,000.0,030.2,023.6,014.4,0000.0,0003.85,0000.81,0000.19
2024-05-07 01:03:00,SystemResetWarning,0814.0,5.01,000.00,022.0,021.2,000.0,030.1,023.6,014.1,0000.0,0003.58,0000.75,0000.18
2024-05-07 01:04:00,SystemResetWarning,0814.1,5.00,000.00,021.9,021.2,000.0,030.2,023.6,014.1,0000.0,0003.60,0000.71,0000.17
2024-05-07 01:05:00,SystemResetWarning,0814.3,5.00,000.00,021.9,021.2,000.0,030.2,023.6,014.4,0000.0,0003.47,0000.68,0000.17
2024-05-07 01:06:00,SystemResetWarning,0814.6,5.00,000.00,021.9,021.2,000.0,030.2,023.6,014.3,0000.0,0003.33,0000.64,0000.17
2024-05-07 01:07:00,SystemResetWarning,0814.3,4.99,000.00,021.9,021.2,000.0,030.1,023.6,014.2,0000.0,0003.38,0000.63,0000.17
2024-05-07 01:08:00,SystemResetWarning,0814.4,5.00,000.00,021.9,021.2,000.0,030.1,023.6,013.7,0000.0,0003.39,0000.63,0000.17
2024-05-07 01:09:00,SystemResetWarning,0814.4,5.00,000.00,021.9,021.2,000.0,030.1,023.6,013.9,0000.0,0003.40,0000.63,0000.17
2024-05-07 01:10:00,SystemResetWarning,0814.4,5.01,000.00,021.9,021.2,000.0,030.1,023.6,013.8,0000.0,0003.35,0000.62,0000.18
2024-05-07 01:11:00,SystemResetWarning,0814.3,5.00,000.00,021.9,021.2,000.0,030.1,023.6,013.4,0000.0,0002.60,0000.59,0000.18
2024-05-07 01:12:00,SystemResetWarning,0814.3,5.00,000.00,021.9,021.2,000.0,030.1,023.6,013.5,0000.0,0001.95,0000.54,0000.18
2024-05-07 01:13:00,SystemResetWarning,0814.2,5.00,000.00,021.9,021.2,000.0,030.1,023.6,013.8,0000.0,0001.88,0000.54,0000.18
2024-05-07 01:14:00,SystemResetWarning,0814.3,5.00,000.00,021.9,021.2,000.0,030.1,023.5,013.3,0000.0,0001.78,0000.53,0000.18
2024-05-07 01:15:00,SystemResetWarning,0814.4,5.00,000.00,021.9,021.2,000.0,030.1,023.5,013.1,0000.0,0001.55,0000.54,0000.18
2024-05-07 01:16:00,SystemResetWarning,0814.4,5.00,000.00,021.9,021.2,000.0,030.1,023.6,013.6,0000.0,0001.61,0000.57,0000.18
2024-05-07 01:17:00,SystemResetWarning,0814.5,5.00,000.00,021.9,021.2,000.0,030.1,023.6,014.1,0000.0,0001.63,0000.57,0000.17
2024-05-07 01:18:00,SystemResetWarning,0814.3,5.00,000.00,021.9,021.2,000.0,030.1,023.6,014.2,0000.0,0001.64,0000.59,0000.16
2024-05-07 01:19:00,SystemResetWarning,0814.3,5.00,000.00,021.9,021.2,000.0,030.1,023.6,014.0,0000.0,0001.67,0000.62,0000.16
2024-05-07 01:20:00,SystemResetWarning,0814.3,5.00,000.00,021.9,021.2,000.0,030.1,023.6,013.7,0000.0,0002.73,0000.62,0000.16
2024-05-07 01:21:00,SystemResetWarning,0814.4,5.00,000.00,022.0,021.2,000.0,030.1,023.5,013.1,0000.0,0002.81,0000.61,0000.16
2024-05-07 01:22:00,SystemResetWarning,0814.3,4.99,000.00,021.9,021.3,000.0,030.1,023.5,013.4,0000.0,0003.53,0000.60,0000.16
2024-05-07 01:23:00,SystemResetWarning,0814.3,5.00,000.00,022.0,021.3,000.0,030.1,023.6,012.9,0000.0,0004.75,0000.60,0000.16
2024-05-07 01:24:00,SystemResetWarning,0814.4,5.00,000.00,022.0,021.3,000.0,030.1,023.5,012.5,0000.0,0004.72,0000.57,0000.16
2024-05-07 01:25:00,SystemResetWarning,0814.5,4.99,000.00,022.0,021.3,000.0,030.1,023.6,012.6,0000.0,0004.75,0000.56,0000.16
2024-05-07 01:26:00,SystemResetWarning,0814.5,5.00,000.00,022.0,021.3,000.0,030.1,023.6,013.0,0000.0,0004.74,0000.53,0000.15
2024-05-07 01:27:00,SystemResetWarning,0814.6,5.01,000.00,022.0,021.3,000.0,030.1,023.6,013.7,0000.0,0004.61,0000.48,0000.15
2024-05-07 01:28:00,SystemResetWarning,0814.5,5.01,000.00,022.0,021.3,000.0,030.1,023.6,014.1,0000.0,0004.64,0000.46,0000.15
2024-05-07 01:29:00,SystemResetWarning,0814.6,5.00,000.00,022.0,021.3,000.0,030.1,023.6,013.8,0000.0,0004.52,0000.42,0000.16
2024-05-07 01:30:00,SystemResetWarning,0814.8,5.00,000.00,022.0,021.4,000.0,030.1,023.6,013.5,0000.0,0004.43,0000.39,0000.16
2024-05-07 01:31:00,SystemResetWarning,0814.8,4.99,000.00,022.0,021.4,000.0,030.1,023.7,014.2,0000.0,0003.47,0000.39,0000.16
2024-05-07 01:32:00,SystemResetWarning,0814.6,4.99,000.00,022.0,021.4,000.0,030.1,023.7,014.0,0000.0,0003.79,0000.40,0000.16
2024-05-07 01:33:00,SystemResetWarning,0814.4,5.01,000.00,022.0,021.4,000.0,030.1,023.7,013.7,0000.0,0003.41,0000.39,0000.16
2024-05-07 01:34:00,SystemResetWarning,0814.3,5.01,000.00,022.0,021.4,000.0,030.1,023.7,013.5,0000.0,0001.59,0000.40,0000.17
2024-05-07 01:35:00,SystemResetWarning,0814.3,4.99,000.00,022.0,021.4,000.0,030.2,023.8,013.4,0000.0,0001.62,0000.39,0000.16
2024-05-07 01:36:00,SystemResetWarning,0814.3,4.99,000.00,022.0,021.4,000.0,030.2,023.8,013.7,0000.0,0001.70,0000.41,0000.16
2024-05-07 01:37:00,SystemResetWarning,0814.3,5.02,000.00,022.0,021.4,000.0,030.2,023.7,013.9,0000.0,0001.71,0000.44,0000.16
2024-05-07 01:38:00,SystemResetWarning,0814.5,5.00,000.00,022.0,021.4,000.0,030.2,023.7,013.9,0000.0,0001.77,0000.46,0000.16
2024-05-07 01:39:00,SystemResetWarning,0814.3,4.99,000.00,022.0,021.3,000.0,030.2,023.7,013.9,0000.0,0001.77,0000.47,0000.16
2024-05-07 01:40:00,SystemResetWarning,0814.3,5.01,000.00,022.0,021.3,000.0,030.2,023.7,014.0,0000.0,0002.17,0000.52,0000.16
2024-05-07 01:41:00,SystemResetWarning,0814.2,5.02,000.00,022.0,021.3,000.0,030.2,023.7,014.2,0000.0,0002.43,0000.54,0000.16
2024-05-07 01:42:00,SystemResetWarning,0814.4,5.00,000.00,022.0,021.3,000.0,030.2,023.7,014.2,0000.0,0002.56,0000.57,0000.16
2024-05-07 01:43:00,SystemResetWarning,0814.7,4.99,000.00,022.0,021.3,000.0,030.2,023.7,014.2,0000.0,0002.26,0000.58,0000.16
2024-05-07 01:44:00,SystemResetWarning,0814.7,5.00,000.00,022.0,021.3,000.0,030.2,023.6,014.3,0000.0,0002.05,0000.57,0000.16
2024-05-07 01:45:00,SystemResetWarning,0814.6,5.01,000.00,022.0,021.3,000.0,030.2,023.6,014.4,0000.0,0002.02,0000.57,0000.15
2024-05-07 01:46:00,SystemResetWarning,0814.7,5.01,000.00,022.0,021.3,000.0,030.2,023.6,014.4,0000.0,0001.94,0000.57,0000.16
2024-05-07 01:47:00,SystemResetWarning,0814.5,5.00,000.00,022.0,021.3,000.0,030.2,023.7,013.7,0000.0,0002.23,0000.57,0000.16
2024-05-07 01:48:00,SystemResetWarning,0814.5,5.00,000.00,022.0,021.3,000.0,030.2,023.7,013.5,0000.0,0002.19,0000.57,0000.16
2024-05-07 01:49:00,SystemResetWarning,0814.6,5.00,000.00,022.0,021.3,000.0,030.2,023.7,013.6,0000.0,0003.07,0000.57,0000.17
2024-05-07 01:50:00,SystemResetWarning,0814.6,5.00,000.00,022.0,021.3,000.0,030.2,023.7,013.7,0000.0,0003.63,0000.58,0000.17
2024-05-07 01:51:00,SystemResetWarning,0814.4,4.99,000.00,022.0,021.3,000.0,030.2,023.7,013.9,0000.0,0003.37,0000.55,0000.17
2024-05-07 01:52:00,SystemResetWarning,0814.3,5.02,000.00,022.0,021.3,000.0,030.2,023.7,013.8,0000.0,0002.95,0000.54,0000.17
2024-05-07 01:53:00,SystemResetWarning,0814.3,5.00,000.00,022.0,021.3,000.0,030.2,023.7,013.3,0000.0,0003.17,0000.49,0000.16
2024-05-07 01:54:00,SystemResetWarning,0814.4,4.99,000.00,022.0,021.3,000.0,030.2,023.7,013.3,0000.0,0003.39,0000.51,0000.16
2024-05-07 01:55:00,SystemResetWarning,0814.5,5.01,000.00,022.0,021.3,000.0,030.2,023.7,013.1,0000.0,0003.44,0000.55,0000.17
2024-05-07 01:56:00,SystemResetWarning,0814.5,5.01,000.00,022.0,021.3,000.0,030.2,023.7,013.4,0000.0,0003.48,0000.54,0000.18
2024-05-07 01:57:00,SystemResetWarning,0814.6,5.01,000.00,022.0,021.3,000.0,030.2,023.7,013.4,0000.0,0003.56,0000.53,0000.17
2024-05-07 01:58:00,SystemResetWarning,0814.8,5.00,000.00,022.0,021.3,000.0,030.2,023.7,013.3,0000.0,0003.33,0000.53,0000.17
2024-05-07 01:59:00,SystemResetWarning,0814.7,4.99,000.00,022.0,021.3,000.0,030.2,023.7,013.8,0000.0,0003.28,0000.51,0000.16
